Wild Horse Reservoir Weather Center

Moon Phase Calendar



Wild Horse Reservoir Water Level
Online Cameras

 


      

Current Conditions in Deep Creek
10/5/2022 8:22:19 PM

56°F
Feels Like 53
Clouds
Humidity
33%
Pressure
30.15"
Wind
4.4 mph (ENE)
Dew Point
28°F
UV Index
0/10 (Low)
Visibility
6 mi

Hourly Forecast

Date & Time Wed, Oct 5
8:00 PM
Wed, Oct 5
9:00 PM
Wed, Oct 5
10:00 PM
Wed, Oct 5
11:00 PM
Thu, Oct 6
12:00 AM
Thu, Oct 6
1:00 AM
Thu, Oct 6
2:00 AM
Thu, Oct 6
3:00 AM
Thu, Oct 6
4:00 AM
Thu, Oct 6
5:00 AM
Thu, Oct 6
6:00 AM
Thu, Oct 6
7:00 AM
Thu, Oct 6
8:00 AM
Thu, Oct 6
9:00 AM
Thu, Oct 6
10:00 AM
Thu, Oct 6
11:00 AM
Thu, Oct 6
12:00 PM
Thu, Oct 6
1:00 PM
Thu, Oct 6
2:00 PM
Thu, Oct 6
3:00 PM
Thu, Oct 6
4:00 PM
Thu, Oct 6
5:00 PM
Thu, Oct 6
6:00 PM
Thu, Oct 6
7:00 PM
Thu, Oct 6
8:00 PM
Thu, Oct 6
9:00 PM
Thu, Oct 6
10:00 PM
Thu, Oct 6
11:00 PM
Fri, Oct 7
12:00 AM
Fri, Oct 7
1:00 AM
Fri, Oct 7
2:00 AM
Fri, Oct 7
3:00 AM
Fri, Oct 7
4:00 AM
Fri, Oct 7
5:00 AM
Fri, Oct 7
6:00 AM
Fri, Oct 7
7:00 AM
Fri, Oct 7
8:00 AM
Fri, Oct 7
9:00 AM
Fri, Oct 7
10:00 AM
Fri, Oct 7
11:00 AM
Fri, Oct 7
12:00 PM
Fri, Oct 7
1:00 PM
Fri, Oct 7
2:00 PM
Fri, Oct 7
3:00 PM
Fri, Oct 7
4:00 PM
Fri, Oct 7
5:00 PM
Fri, Oct 7
6:00 PM
Fri, Oct 7
7:00 PM
Condition
Clouds

Clouds

Clouds

Clouds

Clouds

Clouds

Clouds

Clouds

Clouds

Clouds

Clear

Clear

Clear

Clear

Clear

Clear

Clear

Clear

Clear

Clear

Clear

Clear

Clear

Clear

Clear

Clear

Clear

Clear

Clear

Clear

Clear

Clear

Clear

Clear

Clear

Clear

Clear

Clear

Clear

Clear

Clear

Clear

Clear

Clear

Clear

Clear

Clouds

Clouds
Temperature 56°F56°F55°F54°F53°F51°F50°F49°F49°F48°F48°F48°F56°F61°F65°F67°F69°F71°F72°F72°F72°F71°F65°F60°F58°F56°F55°F53°F52°F51°F51°F50°F50°F49°F48°F48°F57°F63°F67°F69°F71°F72°F72°F73°F73°F71°F65°F60°F
Feels Like 53°F53°F52°F51°F49°F48°F47°F49°F49°F48°F48°F48°F53°F59°F62°F65°F67°F68°F69°F70°F70°F69°F62°F56°F54°F53°F51°F50°F49°F48°F47°F47°F50°F49°F48°F48°F54°F60°F64°F67°F68°F69°F70°F71°F70°F69°F62°F57°F
Cloudiness 12%14%20%27%22%22%20%18%16%14%5%2%2%1%1%1%0%0%0%0%0%1%4%5%4%3%2%2%0%0%0%0%0%0%5%6%5%5%5%6%5%4%5%5%6%7%12%11%
Visibility 6 mi6 mi6 mi6 mi6 mi6 mi6 mi6 mi6 mi6 mi6 mi6 mi6 mi6 mi6 mi6 mi6 mi6 mi6 mi6 mi6 mi6 mi6 mi6 mi6 mi6 mi6 mi6 mi6 mi6 mi6 mi6 mi6 mi6 mi6 mi6 mi6 mi6 mi6 mi6 mi6 mi6 mi6 mi6 mi6 mi6 mi6 mi6 mi
Precipitation 0%0%0%0%0%0%0%0%0%0%0%0%0%0%0%0%0%0%0%0%0%0%0%0%0%0%0%0%0%0%0%0%0%0%0%0%0%0%0%0%0%0%0%0%0%0%0%0%
Humidity 33%34%35%36%37%39%41%43%44%51%56%48%36%29%25%21%18%16%15%14%14%14%20%24%27%30%32%34%35%35%36%36%36%37%39%37%30%21%19%17%15%14%14%13%14%15%20%24%
Dew Point 28°F28°F29°F28°F28°F26°F26°F27°F27°F30°F32°F28°F29°F28°F27°F26°F24°F22°F21°F20°F19°F20°F22°F22°F23°F24°F25°F25°F25°F24°F24°F23°F23°F23°F23°F22°F25°F22°F22°F21°F20°F20°F19°F19°F19°F20°F22°F22°F
Pressure 30.15"30.15"30.15"30.15"30.18"30.18"30.18"30.18"30.18"30.18"30.18"30.21"30.21"30.18"30.18"30.15"30.15"30.12"30.09"30.06"30.06"30.06"30.09"30.12"30.15"30.18"30.18"30.18"30.18"30.18"30.18"30.18"30.18"30.18"30.18"30.21"30.21"30.21"30.18"30.15"30.15"30.12"30.09"30.06"30.06"30.06"30.09"30.12"
Wind Speed 4.4 mph3.1 mph2.3 mph2 mph1.9 mph1.9 mph2.2 mph2 mph1.8 mph1.9 mph2.1 mph2.4 mph2.6 mph2.8 mph3.2 mph2.5 mph2 mph1.3 mph0.7 mph0.4 mph0.2 mph0.7 mph1.5 mph2.4 mph3.7 mph4.4 mph4 mph2.9 mph2 mph1.7 mph1.5 mph1.3 mph1.2 mph1.3 mph1 mph1.3 mph1.3 mph1.1 mph0.8 mph0.7 mph1.8 mph2.3 mph3 mph3.9 mph5 mph5.7 mph4.9 mph4.6 mph
Wind
Direction
70°
ENE
87°
E
91°
E
84°
E
81°
E
84°
E
91°
E
100°
E
108°
ESE
118°
ESE
128°
SE
133°
SE
137°
SE
153°
SSE
159°
SSE
156°
SSE
162°
SSE
168°
SSE
171°
S
188°
S
310°
NW
355°
N
18°
NNE
13°
NNE
10°
N
16°
NNE
21°
NNE
33°
NNE
60°
ENE
101°
E
116°
ESE
128°
SE
134°
SE
137°
SE
133°
SE
113°
ESE
114°
ESE
134°
SE
165°
SSE
257°
WSW
290°
WNW
303°
WNW
309°
NW
317°
NW
324°
NW
331°
NNW
345°
NNW

N

Daily Forecast

Date High Low Precip. Humidity
Today
Oct 5

Clear
71 °F
46 °F
0%
21%
Thursday
Oct 6

Clear
72 °F
48 °F
0%
18%
Friday
Oct 7

Clear
72 °F
48 °F
0%
17%
Saturday
Oct 8

Clouds
72 °F
49 °F
0%
17%
Sunday
Oct 9

Clouds
70 °F
50 °F
0%
17%
Monday
Oct 10

Clouds
70 °F
48 °F
0%
17%
Tuesday
Oct 11

Rain
59 °F
43 °F
61%
31%
Wednesday
Oct 12

Rain
55 °F
40 °F
99%
67%
Thursday
Oct 13

Rain
57 °F
41 °F
100%
54%
Friday
Oct 14

Rain
51 °F
38 °F
91%
65%
Saturday
Oct 15

Clouds
56 °F
41 °F
0%
61%
Sunday
Oct 16

Clear
60 °F
42 °F
0%
40%
Monday
Oct 17

Clear
63 °F
43 °F
0%
26%
Tuesday
Oct 18

Clear
66 °F
46 °F
0%
26%
Wednesday
Oct 19

Clear
68 °F
48 °F
0%
24%
Thursday
Oct 20

Clear
68 °F
48 °F
0%
22%

Temperature 8-14 Day Outlook



Precipitation 8-14 Day Outlook




Quick Links
Wild Horse Reservoir News
Wild Horse Reservoir Photos
Wild Horse Reservoir Videos




About Us
Contact Us
Site Map
Search Site
Advertise With Us
   
WildHorse.LakesOnline.com
THE WILD HORSE RESERVOIR WEBSITE

Copyright 2022, Lakes Online
Privacy    |    Legal